User: anonymous   Login
Location: Caltech
(34.1382°N, 118.1253°W)
Time: 04:42:49
(UTC-08:00)
Language:

deb Explorer IX - Orbit

View from above orbital plane
View from above orbital plane
View from above satellite
View from above satellite

Ground track
Ground track

The orbit data is extracted from the following two-line orbital elements,

1 00085U 61004C   16344.63756246  .00005122  00000-0  11745-2 0  9991
2 00085  38.7759  82.3626 0397508 237.2642 118.9194 14.16761394748384
Epoch (UTC): 09 December 2016 15:18:05
Eccentricity: 0.0397508
inclination: 38.7759°
perigee height: 549 km
apogee height: 1123 km
right ascension of ascending node: 82.3626°
argument of perigee: 237.2642°
revolutions per day: 14.16761394
mean anomaly at epoch: 118.9194°
orbit number at epoch: 74838

The dashed part of the orbit path shows where the satellite is in the earth's shadow,  

DLR